Weather History for Eagle Creek, IN

Change the Weather History Date:

Monday, March 10, 2014

  Actual Average Record
Temperature  
Mean Temperature 48 °F 40 °F  
Max Temperature 59 °F 49 °F 73 °F (2009)
Min Temperature 36 °F 31 °F 14 °F (1998)
Degree Days  
Heating Degree Days 17 25  
Month to date heating degree days 354 266  
Since 1 July heating degree days 5180 4391  
Cooling Degree Days 0 0  
Month to date cooling degree days 0 0  
Year to date cooling degree days 0 0  
Moisture  
Dew Point 35 °F    
Average Humidity 65    
Maximum Humidity 85    
Minimum Humidity 44    
Precipitation  
Precipitation 0.00 in 0.08 in 0.40 in (2009)
Month to date precipitation 0.18 0.70  
Year to date precipitation 4.56 5.04  
Sea Level Pressure  
Sea Level Pressure 29.83 in    
Wind  
Wind Speed 9 mph (SW)    
Max Wind Speed 17 mph    
Max Gust Speed 25 mph    
Visibility 8 miles    
Events      
T = Trace of Precipitation, MM = Missing Value Source: NWS Daily Summary

Daily Weather History Graph

Daily Weather History Graph

Search for Another Location

Airport:

Trip Planner

Search our weather history database for the weather conditions in past years. The results will help you decide how hot, cold, wet, or windy it might be!

Date:

Astronomy

Mar. 10, 2014 Rise Set
Actual Time 8:04 AM EDT 7:46 PM EDT
Civil Twilight 7:37 AM EDT 8:13 PM EDT
Nautical Twilight 7:06 AM EDT 8:45 PM EDT
Astronomical Twilight 6:34 AM EDT 9:16 PM EDT
Moon 2:30 PM EDT (3/10) 4:15 AM EDT (3/10)
Length of Visible Light 12h 36m
Length of Day
11h 42m
Waxing Gibbous, 70% of the Moon is Illuminated
Mar 10
Waxing Gibbous
Mar 16
Full
Mar 23
Last Quarter
Mar 30
New
Apr 7
First Quarter

Hourly Weather History & Observations

Time (EDT) Temp. Windchill Dew Point Humidity Pressure Visibility Wind Dir Wind Speed Gust Speed Precip Events Conditions
12:53 AM 37.0 °F 30.4 °F 28.9 °F 73% 29.98 in 8.0 mi SSW 9.2 mph - N/A   Clear
1:53 AM 37.0 °F 31.0 °F 28.9 °F 73% 29.96 in 8.0 mi SW 8.1 mph - N/A   Clear
2:53 AM 37.0 °F 31.0 °F 28.9 °F 73% 29.94 in 8.0 mi SW 8.1 mph - N/A   Clear
3:53 AM 37.0 °F 31.6 °F 28.9 °F 73% 29.92 in 9.0 mi SW 6.9 mph - N/A   Clear
4:53 AM 37.9 °F 31.5 °F 30.0 °F 73% 29.89 in 9.0 mi SW 9.2 mph - N/A   Clear
5:53 AM 39.0 °F 33.4 °F 30.0 °F 70% 29.88 in 9.0 mi SW 8.1 mph 19.6 mph N/A   Clear
6:53 AM 37.9 °F 31.5 °F 30.0 °F 73% 29.88 in 8.0 mi SW 9.2 mph - N/A   Clear
7:53 AM 37.0 °F 30.4 °F 30.9 °F 79% 29.87 in 7.0 mi SW 9.2 mph - N/A   Clear
8:53 AM 37.9 °F 32.1 °F 33.1 °F 83% 29.88 in 4.0 mi SW 8.1 mph - N/A   Haze
9:53 AM 39.0 °F 33.4 °F 34.0 °F 82% 29.88 in 4.0 mi SW 8.1 mph - N/A   Haze
10:53 AM 42.1 °F 34.2 °F 35.1 °F 76% 29.85 in 5.0 mi SW 16.1 mph 21.9 mph N/A   Haze
11:53 AM 46.0 °F 41.4 °F 36.0 °F 68% 29.86 in 6.0 mi SW 9.2 mph 17.3 mph N/A   Haze
12:53 PM 50.0 °F - 36.0 °F 59% 29.84 in 7.0 mi Variable 5.8 mph - N/A   Clear
1:53 PM 53.1 °F - 36.0 °F 52% 29.82 in 9.0 mi WSW 12.7 mph - N/A   Partly Cloudy
2:53 PM 55.9 °F - 37.0 °F 49% 29.78 in 9.0 mi SW 15.0 mph 25.3 mph N/A   Clear
3:53 PM 57.0 °F - 37.0 °F 47% 29.75 in 10.0 mi SW 10.4 mph 19.6 mph N/A   Clear
4:53 PM 59.0 °F - 37.9 °F 46% 29.74 in 10.0 mi SSW 13.8 mph - N/A   Clear
5:53 PM 59.0 °F - 39.0 °F 48% 29.72 in 10.0 mi SW 10.4 mph - N/A   Clear
6:53 PM 57.9 °F - 39.0 °F 49% 29.73 in 10.0 mi SW 13.8 mph 23.0 mph N/A   Clear
7:53 PM 55.0 °F - 39.0 °F 55% 29.74 in 10.0 mi WSW 4.6 mph - N/A   Clear
8:53 PM 53.1 °F - 39.0 °F 59% 29.75 in 10.0 mi SW 4.6 mph - N/A   Clear
9:53 PM 50.0 °F - 39.0 °F 66% 29.75 in 10.0 mi SSW 3.5 mph - N/A   Clear
10:53 PM 48.0 °F - 39.0 °F 71% 29.75 in 10.0 mi Calm Calm - N/A   Clear
11:53 PM 45.0 °F 43.5 °F 37.0 °F 74% 29.74 in 10.0 mi SW 3.5 mph - N/A   Clear